Weather History for Wallops Island, VA

Change the Weather History Date:

Monday, March 25, 2013

  Actual Average Record
Temperature  
Mean Temperature 39 °F 48 °F  
Max Temperature 42 °F 56 °F 71 °F (1975)
Min Temperature 36 °F 39 °F 25 °F (2009)
Degree Days  
Heating Degree Days 26    
Month to date heating degree days 570  
Since 1 July heating degree days 3267  
Cooling Degree Days 0    
Month to date cooling degree days 0  
Year to date cooling degree days 0  
Moisture  
Dew Point 32 °F    
Average Humidity 79    
Maximum Humidity 82    
Minimum Humidity 76    
Precipitation  
Precipitation 0.40 in 0.13 in 0.63 in (2014)
Month to date precipitation 4.26 3.21  
Year to date precipitation 12.50 9.01  
Sea Level Pressure  
Sea Level Pressure 29.51 in    
Wind  
Wind Speed 12 mph (NNW)    
Max Wind Speed 25 mph    
Max Gust Speed 32 mph    
Visibility 7 miles    
Events Rain    
T = Trace of Precipitation, MM = Missing Value Source: NWS Daily Summary

Daily Weather History Graph

Daily Weather History Graph

Search for Another Location

Airport:

Trip Planner

Search our weather history database for the weather conditions in past years. The results will help you decide how hot, cold, wet, or windy it might be!

Date:

Astronomy

Mar. 25, 2013 Rise Set
Actual Time 6:57 AM EDT 7:18 PM EDT
Civil Twilight 6:31 AM EDT 7:44 PM EDT
Nautical Twilight 6:00 AM EDT 8:15 PM EDT
Astronomical Twilight 5:28 AM EDT 8:47 PM EDT
Moon 5:48 PM EDT (3/25) 5:38 AM EDT (3/25)
Length of Visible Light 13h 13m
Length of Day
12h 21m
Waxing Gibbous, 96% of the Moon is Illuminated
Mar 25
Waxing Gibbous
Mar 27
Full
Apr 3
Last Quarter
Apr 10
New
Apr 18
First Quarter

Hourly Weather History & Observations

Time (EDT) Temp. Windchill Dew Point Humidity Pressure Visibility Wind Dir Wind Speed Gust Speed Precip Events Conditions
12:54 AM 37.9 °F 27.3 °F 30.0 °F 73% 29.59 in 10.0 mi ENE 21.9 mph 28.8 mph N/A   Overcast
1:31 AM 39.0 °F 28.5 °F 32.0 °F 76% 29.57 in 10.0 mi East 23.0 mph 29.9 mph N/A   Overcast
1:54 AM 39.0 °F 29.3 °F 32.0 °F 76% 29.55 in 10.0 mi East 19.6 mph 28.8 mph N/A   Overcast
2:54 AM 39.9 °F 31.1 °F 33.1 °F 77% 29.53 in 10.0 mi East 17.3 mph 29.9 mph 0.00 in   Overcast
3:25 AM 39.9 °F 30.8 °F 34.0 °F 79% 29.53 in 4.0 mi East 18.4 mph 26.5 mph 0.01 in Rain Light Rain
3:54 AM 39.9 °F 31.1 °F 34.0 °F 79% 29.51 in 5.0 mi East 17.3 mph 25.3 mph 0.01 in Rain Light Rain
4:54 AM 41.0 °F 33.1 °F 35.1 °F 79% 29.48 in 4.0 mi East 15.0 mph - 0.03 in Rain Light Rain
5:03 AM 41.0 °F 32.5 °F 35.1 °F 79% 29.48 in 4.0 mi East 17.3 mph - 0.01 in Rain Light Rain
5:19 AM 41.0 °F 32.8 °F 35.1 °F 79% 29.47 in 5.0 mi East 16.1 mph - 0.01 in Rain Light Rain
5:54 AM 42.1 °F 34.2 °F 36.0 °F 79% 29.45 in 3.0 mi East 16.1 mph - 0.02 in Rain Light Rain
6:02 AM 42.1 °F 34.5 °F 36.0 °F 79% 29.45 in 3.0 mi East 15.0 mph - 0.00 in Rain Light Rain
6:16 AM 42.1 °F 35.2 °F 36.0 °F 79% 29.44 in 3.0 mi East 12.7 mph - 0.01 in Rain Light Rain
6:33 AM 42.1 °F 36.1 °F 37.0 °F 82% 29.46 in 4.0 mi NNE 10.4 mph - 0.02 in Rain Light Rain
6:47 AM 42.1 °F 37.1 °F 36.0 °F 79% 29.46 in 2.5 mi North 8.1 mph - 0.04 in Rain Rain
6:50 AM 42.8 °F 37.0 °F 35.6 °F 76% 29.46 in 2.0 mi North 10.4 mph - 0.05 in Rain Rain
6:54 AM 41.0 °F 34.7 °F 36.0 °F 82% 29.46 in 2.0 mi NNW 10.4 mph - 0.08 in Rain Heavy Rain
7:00 AM 41.0 °F 34.7 °F 36.0 °F 82% 29.46 in 2.5 mi North 10.4 mph - 0.03 in Rain Rain
7:09 AM 41.0 °F 34.7 °F 35.1 °F 79% 29.46 in 4.0 mi North 10.4 mph - 0.05 in Rain Light Rain
7:23 AM 39.9 °F 32.1 °F 34.0 °F 79% 29.45 in 6.0 mi NNW 13.8 mph - 0.06 in Rain Light Rain
7:54 AM 37.0 °F 28.1 °F 32.0 °F 82% 29.44 in 7.0 mi North 15.0 mph 21.9 mph 0.08 in Rain Light Rain
8:54 AM 36.0 °F 27.1 °F 30.9 °F 82% 29.42 in 4.0 mi NNW 13.8 mph - 0.01 in Rain Light Rain
9:21 AM 36.0 °F 27.5 °F 30.9 °F 82% 29.44 in 2.5 mi NW 12.7 mph - 0.02 in Rain Light Rain
9:42 AM 37.0 °F 28.9 °F 30.9 °F 79% 29.44 in 4.0 mi North 12.7 mph - 0.05 in Rain Light Rain
9:54 AM 37.0 °F 29.3 °F 30.9 °F 79% 29.43 in 5.0 mi North 11.5 mph - 0.06 in Rain Light Rain
10:54 AM 37.9 °F 30.0 °F 32.0 °F 79% 29.44 in 10.0 mi NNW 12.7 mph - 0.01 in   Overcast
11:39 AM 39.0 °F 32.3 °F 33.1 °F 79% 29.45 in 6.0 mi NNW 10.4 mph - 0.01 in Rain Light Rain
11:54 AM 39.0 °F 31.8 °F 33.1 °F 79% 29.45 in 10.0 mi NNW 11.5 mph - 0.01 in   Overcast
12:01 PM 39.0 °F 32.3 °F 32.0 °F 76% 29.46 in 10.0 mi NNW 10.4 mph - N/A   Overcast
12:18 PM 39.0 °F 31.0 °F 32.0 °F 76% 29.45 in 8.0 mi NW 13.8 mph - 0.00 in Rain Light Rain
12:39 PM 39.0 °F 32.3 °F 33.1 °F 79% 29.45 in 8.0 mi NNW 10.4 mph - 0.01 in Rain Light Rain
12:54 PM 39.9 °F 33.9 °F 33.1 °F 77% 29.44 in 10.0 mi NNW 9.2 mph - 0.01 in Rain Light Rain
1:06 PM 39.9 °F 33.4 °F 33.1 °F 77% 29.45 in 10.0 mi NNW 10.4 mph - 0.00 in   Overcast
1:20 PM 39.9 °F 32.5 °F 33.1 °F 77% 29.45 in 10.0 mi NW 12.7 mph - 0.00 in   Overcast
1:54 PM 39.0 °F 31.8 °F 32.0 °F 76% 29.45 in 5.0 mi NW 11.5 mph - 0.00 in Rain Light Rain
2:04 PM 39.0 °F 31.8 °F 32.0 °F 76% 29.46 in 4.0 mi NW 11.5 mph - 0.01 in Rain Light Rain
2:14 PM 39.0 °F 31.8 °F 33.1 °F 79% 29.45 in 5.0 mi NW 11.5 mph - 0.01 in Rain Light Rain
2:24 PM 39.0 °F 31.4 °F 32.0 °F 76% 29.46 in 7.0 mi NW 12.7 mph - 0.01 in Rain Light Rain
2:38 PM 39.0 °F 31.8 °F 32.0 °F 76% 29.45 in 6.0 mi NW 11.5 mph - 0.02 in Rain Light Rain
2:54 PM 39.0 °F 31.4 °F 32.0 °F 76% 29.44 in 6.0 mi NW 12.7 mph - 0.02 in Rain Light Rain
3:01 PM 39.0 °F 32.3 °F 33.1 °F 79% 29.45 in 8.0 mi NW 10.4 mph - 0.00 in Rain Light Rain
3:54 PM 39.0 °F 30.6 °F 32.0 °F 76% 29.46 in 10.0 mi NW 15.0 mph 24.2 mph 0.02 in Rain Light Rain
4:01 PM 39.0 °F 31.8 °F 32.0 °F 76% 29.46 in 10.0 mi NW 11.5 mph 19.6 mph 0.00 in Rain Light Rain
4:54 PM 39.0 °F 31.0 °F 32.0 °F 76% 29.48 in 10.0 mi NW 13.8 mph - 0.00 in Rain Light Rain
5:02 PM 39.0 °F 30.6 °F 32.0 °F 76% 29.49 in 10.0 mi NNW 15.0 mph - 0.00 in   Overcast
5:39 PM 37.9 °F 30.5 °F 30.9 °F 76% 29.51 in 10.0 mi NNW 11.5 mph - 0.00 in Rain Light Rain
5:52 PM 37.4 °F 28.9 °F 30.2 °F 75% 29.52 in 8.0 mi NNW 13.8 mph - 0.00 in Rain Light Rain
5:54 PM 37.9 °F 29.6 °F 30.9 °F 76% 29.52 in 8.0 mi NNW 13.8 mph - 0.00 in Rain Light Rain
6:08 PM 37.0 °F 29.3 °F 30.9 °F 79% 29.53 in 7.0 mi NNW 11.5 mph - 0.00 in Rain Light Rain
6:16 PM 37.0 °F 30.4 °F 30.9 °F 79% 29.54 in 8.0 mi NNW 9.2 mph - 0.01 in Rain Light Rain
6:23 PM 37.0 °F 29.3 °F 30.9 °F 79% 29.54 in 8.0 mi NNW 11.5 mph - 0.01 in Rain Light Rain
6:40 PM 37.0 °F 28.9 °F 30.9 °F 79% 29.55 in 10.0 mi North 12.7 mph - 0.01 in Rain Light Rain
6:54 PM 37.0 °F 28.9 °F 30.0 °F 76% 29.55 in 10.0 mi NNW 12.7 mph - 0.02 in Rain Light Rain
7:28 PM 37.0 °F 29.3 °F 30.0 °F 76% 29.59 in 10.0 mi NNW 11.5 mph - 0.01 in Rain Light Rain
7:54 PM 36.0 °F 28.0 °F 30.0 °F 79% 29.60 in 7.0 mi NW 11.5 mph - 0.01 in Rain Light Rain
8:54 PM 36.0 °F 29.0 °F 30.0 °F 79% 29.64 in 8.0 mi NNW 9.2 mph - 0.01 in Rain Light Rain
9:17 PM 36.0 °F 29.6 °F 30.0 °F 79% 29.65 in 8.0 mi NW 8.1 mph - 0.00 in   Overcast
9:24 PM 36.0 °F 29.0 °F 30.0 °F 79% 29.66 in 8.0 mi NW 9.2 mph - 0.00 in   Overcast
9:54 PM 37.0 °F 31.6 °F 30.9 °F 79% 29.66 in 8.0 mi NNW 6.9 mph - 0.00 in   Overcast
10:32 PM 36.0 °F 30.3 °F 30.0 °F 79% 29.67 in 7.0 mi NW 6.9 mph - N/A   Overcast
10:54 PM 36.0 °F 30.3 °F 30.0 °F 79% 29.67 in 6.0 mi NW 6.9 mph - N/A   Haze
11:15 PM 36.0 °F 31.1 °F 30.9 °F 82% 29.68 in 6.0 mi NW 5.8 mph - N/A   Haze
11:52 PM 35.6 °F 29.9 °F 30.2 °F 81% 29.69 in 5.0 mi NNW 6.9 mph - N/A   Haze
11:54 PM 36.0 °F 31.1 °F 30.0 °F 79% 29.68 in 5.0 mi NW 5.8 mph - N/A   Haze